Location: Les Jeannots
(43.2262°N, 5.5774°E)
Time: 02:41:12
(UTC+00:00)

Cosmos 2056 Rocket - Pass Details

Date: 05 July 2020
Orbit: 741 x 801 km, 74.0° (Epoch: 04 August)

Event Time Altitude Azimuth Distance (km) Brightness Sun altitude
Rises 22:59:12 0° 337° (NNW) 3,305 8.1 -23.4°
Reaches altitude 10° 23:01:37 10° 336° (NNW) 2,377 7.1 -23.4°
Maximum altitude 23:07:01 73° 252° (WSW) 837 3.5 -23.6°
Enters shadow 23:07:56 59° 193° (SSW) 920 3.5 -23.6°
